SL-16 R/B (28353 NORAD) Tracking and Keplerian Element Data

This shows tracking and keplerian element data for the satellite.

Feedback or suggestion? Click here.




ElementValue
Catalog28353
NameSL-16 R/B
Epoch Orbit74963
Epoch Day351.18097562
Epoch Year2018
RAAN9.2051
Inclination70.9999
Eccentricity0.0002836
Argument of Perigee89.1785
Mean Anonmoly270.9662
Mean Motion14.14209538
Decay Rate-1E-08
L11 28353U 04021B 18351.18097562 -.00000001 00000-0 24643-4 0 9999
L22 28353 70.9999 9.2051 0002836 89.1785 270.9662 14.14209538749638

Live tracking and technical data element details for SL-16 R/B (NORAD 28353). SL-16 R/B can be tracked NOW for your location showing map with azimuth and elevation plus other details from your city location.

Track the satellite on the map from your city or location and see movement details for azimuth, elevation, latitude, longitude, range, height, and movement on the map or in text.







IsCatalogInMostPopularTable: catalog: 28353, numindb: 45
Update: records affected: 1



GetName: 28353 SL-16 R/B

Hit Count: updated at: Tue, 18 Dec 2018 22:01:38 GMT